#timestamp,LO_Frequency,Hit,StdDev 
1561780815.0,286047003.5,N
1561780815.9,286047003.5,N
1561780835.7,286047004.3,N
1561780855.6,286047002.5,N
1561780875.4,286047002.0,N
1561780895.3,286047002.6,N
1561780915.1,286047002.4,N
1561780935.8,286047001.5,N
1561780955.7,286047004.2,N
1561780975.5,286047002.0,N
1561780995.4,286047001.8,N
1561781015.2,286047002.5,N
1561781035.0,286047003.2,N
1561781035.9,286047003.2,N
1561781055.8,286047001.8,N
1561781075.6,286047000.2,N
1561781095.4,286047004.3,Y
1561781115.3,286047000.2,P
1561781135.1,286047000.1,N
1561781155.9,286047000.1,N
1561781175.7,286047002.8,N
1561781195.5,286046999.8,N
1561781215.4,286047000.2,N
1561781235.2,286046999.8,N
1561781255.1,286047004.0,Y
1561781256.0,286047004.0,P
1561781275.8,286047002.3,N
1561781295.6,286047002.1,N
1561781315.5,286047002.4,N
1561781335.3,286046999.7,N
1561781355.1,286047002.2,N
1561781375.9,286047002.8,N
1561781395.7,286046999.9,N
1561781415.6,286047000.1,N
1561781435.4,286047002.8,N
1561781455.2,286046998.1,N
1561781475.1,286046998.5,N
1561781476.0,286046998.5,N
1561781495.8,286046998.1,N
1561781515.6,286047001.0,N
1561781535.5,286046999.7,N
1561781555.3,286047000.0,N
1561781575.2,286046998.2,N
1561781595.9,286046998.3,N
1561781615.7,286046998.8,N
1561781635.6,286046998.6,N
1561781655.4,286046998.1,N
1561781675.3,286047001.2,N
1561781695.1,286046998.7,N
1561781696.0,286046998.7,N
1561781715.8,286046999.1,N
1561781735.7,286046998.5,N
1561781755.5,286046999.0,N
1561781775.4,286046998.4,N
1561781795.2,286046999.3,N
1561781815.0,286046998.6,N
1561781815.9,286046998.6,N
1561781835.8,286047000.0,N
1561781855.7,286046998.6,N
1561781875.5,286047000.4,N
1561781895.3,286046998.2,N
1561781915.2,286046998.6,N
1561781935.0,286047000.6,N
1561781935.9,286047000.6,N
1561781955.8,286047001.0,N
1561781975.6,286047000.3,N
1561781995.4,286047000.6,N
1561782015.3,286046998.2,N
1561782035.1,286047000.1,N
1561782055.8,286047001.2,N
1561782075.7,286046998.7,N
1561782095.5,286047001.2,N
1561782115.4,286046998.2,N
1561782135.2,286046999.2,N
1561782155.0,286046999.3,N
1561782155.9,286046999.3,N
1561782175.8,286046999.1,N
1561782195.6,286046995.3,Y
1561782215.5,286046997.0,P
1561782235.3,286046998.8,N
1561782255.1,286046999.4,N
1561782275.9,286046998.5,N
1561782295.7,286046998.1,N
1561782315.5,286046998.7,N
1561782335.4,286046998.8,N
1561782355.2,286046999.4,N
1561782375.1,286046998.8,N
1561782376.0,286046998.8,N
1561782395.8,286046999.4,N
1561782415.6,286046999.2,N
1561782435.5,286046996.5,Y
1561782455.3,286046998.2,P
1561782475.7,286046998.6,P
1561782495.5,286046998.9,P
1561782515.4,286046999.1,Y
1561782535.2,286047001.0,P
1561782555.0,286047001.2,N
1561782556.0,286047001.2,N
1561782575.8,286046998.2,N
1561782595.6,286047001.2,N
1561782615.5,286046998.1,N
1561782635.3,286047001.1,N
1561782655.0,286046998.3,N
1561782655.9,286046998.3,N
1561782675.8,286046998.4,N
1561782695.6,286046999.0,N
1561782715.4,286046996.5,N
1561782735.3,286046997.2,N
1561782755.1,286046997.4,N
1561782775.8,286046997.1,N
1561782795.7,286046997.3,N
1561782815.5,286046997.9,N
1561782835.4,286046997.0,N
1561782855.2,286046997.0,N
1561782875.0,286046999.6,N
1561782875.9,286046999.6,N
1561782895.8,286046999.2,N
1561782915.6,286046998.7,N
1561782935.4,286047000.8,N
1561782955.3,286046998.5,N
1561782975.1,286046998.1,N
1561782995.9,286047000.7,N
1561783015.7,286047000.4,N
1561783035.5,286047000.7,N
1561783055.4,286047000.9,N
1561783075.2,286047001.0,N
1561783095.1,286047000.9,N
1561783096.0,286047000.9,N
1561783115.8,286047000.8,N
1561783135.6,286047001.1,N
1561783155.5,286047000.5,N
1561783175.3,286047000.8,N
1561783195.1,286047004.3,N
1561783215.9,286047002.1,N
1561783235.7,286047002.7,N
1561783255.6,286047002.5,N
1561783275.4,286047002.8,N
1561783295.2,286047002.8,N
1561783315.1,286047002.7,N
1561783316.0,286047002.7,N
1561783335.8,286047000.0,N
1561783355.7,286046999.8,N
1561783375.5,286047002.2,N
1561783395.3,286047002.2,N
1561783415.2,286047002.5,N
1561783435.0,286047001.4,N
1561783435.9,286047001.4,N
1561783455.8,286047001.7,N
1561783475.6,286047002.3,N
1561783495.4,286047002.6,N
1561783515.3,286047004.0,Y
1561783535.1,286047000.9,P
1561783555.8,286047001.1,P
1561783575.7,286047000.8,N
1561783595.5,286047000.7,N
1561783615.4,286046998.2,Y
1561783635.2,286046997.1,P
1561783655.0,286046998.7,N
1561783655.9,286046998.7,N
1561783675.8,286046997.3,N
1561783695.6,286046997.1,N
1561783715.1,286046997.1,N
1561783716.0,286046997.1,N
1561783735.8,286046998.6,N
1561783755.7,286047000.9,N
1561783775.5,286046998.3,N
1561783795.3,286046998.6,N
1561783815.2,286046999.9,N
1561783835.0,286046998.3,N
1561783835.9,286046998.3,N
1561783855.7,286047000.0,N
1561783875.6,286046999.3,N
1561783895.4,286046996.9,N
1561783915.3,286046996.8,N
1561783935.1,286046997.7,N
1561783936.0,286046997.7,N
1561783955.8,286046998.5,N
1561783975.7,286046999.1,N
1561783995.5,286046998.8,N
1561784015.4,286046999.3,N
1561784035.2,286046999.6,N
1561784055.0,286046999.5,N
1561784055.9,286046999.5,N
1561784075.8,286046999.0,N
1561784095.6,286046997.6,N
1561784115.4,286046997.7,N
1561784135.3,286046997.7,N
1561784155.1,286046999.6,N
1561784175.9,286047000.0,N
1561784195.7,286047000.7,N
1561784215.4,286047000.9,N
1561784235.2,286046999.8,N
1561784255.0,286046998.3,N
1561784255.9,286046998.3,N
1561784275.8,286046998.5,N
1561784295.6,286047000.7,N
1561784315.5,286047001.1,N
1561784335.3,286047001.0,N
1561784355.1,286047000.8,N
1561784375.9,286046998.5,N
1561784395.7,286046998.3,N
